Flag for India

Past Weather in Mumbai, Maharashtra, India — Yesterday and Last 2 Weeks

Now
81 °F

Partly cloudy.


Feels Like: 88 °F
Forecast: 85 / 81 °F
Wind: 3 mph from Southeast

Location: Mumbai / Santacruz

Current Time: Jul 13, 2020 at 4:15:58 am

Latest Report: Jul 13, 2020 at 3:30 am


Visibility: 2 mi

Pressure: 29.62 "Hg

Humidity: 94%

Dew Point: 79 °F

Location of MumbaiLocation

Past Weather in Mumbai — Graph

°F

Mumbai Temperature Yesterday

Maximum temperature yesterday: 82 °F (at 8:30 am)
Minimum temperature yesterday: 77 °F (at 3:30 pm)
Average temperature yesterday: 80 °F

High & Low Weather Summary for the Past Weeks

 TemperatureHumidityPressure
High90 °F (Jun 28, 11:30 am)100% (Jun 29, 5:00 am)29.71 "Hg (Jun 29, 5:00 am)
Low77 °F (Jul 4, 5:00 pm)67% (Jun 30, 12:30 pm)29.45 "Hg (Jul 6, 3:30 pm)
Average83 °F88%29.60 "Hg
* Reported Jun 28 2:30 am — Jul 13 3:00 am, Mumbai. Weather by CustomWeather, © 2020

Note: Actual official high and low records may vary slightly from our data, if they occured in-between our weather recording intervals... More about our weather records

Mumbai Weather History for the Previous 24 Hours

Scroll right to see more
 ConditionsComfort  
Time TempWeatherWind HumidityBarometerVisibility
3:00 am
Mon, Jul 13
81 °FPartly cloudy.9 mph94%29.65 "Hg1 mi
2:30 am79 °FLight rain. Partly cloudy.3 mph100%29.65 "Hg1 mi
2:00 am79 °FPartly cloudy.3 mph100%29.65 "Hg1 mi
1:30 am79 °FLight rain. Partly cloudy.3 mph100%29.65 "Hg1 mi
1:00 am79 °FLight rain. Partly cloudy.8 mph100%29.65 "Hg1 mi
12:30 am79 °FPassing clouds.3 mph94%29.68 "Hg2 mi
12:00 am79 °FPassing clouds.3 mph100%29.68 "Hg2 mi
11:30 pm
Sun, Jul 12
79 °FPartly cloudy.3 mph100%29.68 "Hg2 mi
11:00 pm79 °FPartly cloudy.No wind94%29.68 "Hg2 mi
10:30 pm79 °FPartly cloudy.3 mph94%29.68 "Hg2 mi
10:00 pm79 °FPartly cloudy.3 mph94%29.68 "Hg2 mi
9:30 pm79 °FPartly cloudy.3 mph94%29.68 "Hg2 mi
9:00 pm79 °FPartly cloudy.3 mph89%29.68 "Hg2 mi
8:30 pm79 °FPartly cloudy.3 mph89%29.68 "Hg2 mi
8:00 pm79 °FPartly cloudy.No wind89%29.65 "Hg2 mi
7:30 pm79 °FBroken clouds.6 mph89%29.65 "Hg2 mi
7:00 pm81 °FDrizzle. Broken clouds.8 mph89%29.65 "Hg2 mi
6:30 pm81 °FMore clouds than sun.8 mph94%29.62 "Hg2 mi
6:00 pm81 °FBroken clouds.7 mph94%29.62 "Hg2 mi
5:30 pm81 °FBroken clouds.7 mph94%29.62 "Hg2 mi
5:00 pm79 °FBroken clouds.3 mph100%29.65 "Hg2 mi
4:30 pm79 °FScattered showers. More clouds than sun.3 mph100%29.65 "Hg1 mi
4:00 pm77 °FThunderstorms. More clouds than sun.7 mph100%29.68 "Hg1 mi
3:30 pm77 °FStrong thunderstorms. More clouds than sun.8 mph100%29.68 "Hg1 mi
3:00 pm81 °FLight rain. More clouds than sun.8 mph94%29.68 "Hg1 mi
2:30 pm82 °FSprinkles. More clouds than sun.12 mph89%29.68 "Hg1 mi
2:00 pm82 °FBroken clouds.9 mph94%29.68 "Hg1 mi
1:30 pm81 °FDrizzle. More clouds than sun.5 mph94%29.68 "Hg1 mi
1:00 pm79 °FThunderstorms. More clouds than sun.7 mph94%29.71 "Hg1 mi
12:30 pm81 °FHeavy rain. More clouds than sun.13 mph100%29.71 "Hg1 mi
12:00 pm81 °FStrong thunderstorms. More clouds than sun.10 mph100%29.71 "Hg1 mi
11:30 am81 °FThunderstorms. More clouds than sun.3 mph94%29.71 "Hg1 mi
11:00 am81 °FThunderstorms. More clouds than sun.10 mph100%29.71 "Hg1 mi
10:30 am81 °FMore clouds than sun.10 mph94%29.71 "Hg2 mi
10:00 am81 °FRain. More clouds than sun.6 mph94%29.71 "Hg1 mi
9:30 am82 °FMore clouds than sun.9 mph89%29.68 "Hg1 mi
9:00 am82 °FLight rain. More clouds than sun.7 mph89%29.68 "Hg1 mi
8:30 am82 °FLight rain. More clouds than sun.6 mph89%29.68 "Hg1 mi
8:00 am81 °FScattered showers. More clouds than sun.No wind94%29.68 "Hg1 mi
7:30 am79 °FLight rain. More clouds than sun.6 mph94%29.65 "Hg1 mi
7:00 am81 °FScattered showers. More clouds than sun.5 mph94%29.65 "Hg1 mi
6:00 am81 °FLight rain. Mostly cloudy.6 mph94%29.65 "Hg1 mi
5:30 am79 °FLight rain. Mostly cloudy.No wind94%29.62 "Hg1 mi
5:00 am79 °FLight rain. Partly cloudy.No wind94%29.62 "Hg1 mi
4:30 am79 °FRain. Mostly cloudy.3 mph94%29.62 "Hg1 mi
4:00 am81 °FLight rain. Partly cloudy.3 mph94%29.62 "Hg1 mi
Weather by CustomWeather, © 2020

See weather overview